Theta_e
339 338 336 334 334 330 331 328 335 336 336 336 335 335 333 333 332 330 330 331 331 330 330 329 328 328 327 326 326 325 325 325 324 324 324 324 324 324 324 324 324 325 325
338 336 333 333 333 330 329 329 331 335 333 334 334 334 333 331 330 328 328 329 330 329 329 329 328 327 326 325 325 324 324 324 323 323 323 323 323 323 323 323 323 323 323
338 337 334 332 330 332 332 325 327 334 332 332 332 333 333 332 330 329 328 327 329 329 329 328 328 328 327 326 325 324 323 323 322 322 322 322 322 322 322 323 323 322 322
336 334 331 331 331 332 330 326 327 330 330 330 330 331 332 332 330 329 328 327 328 328 328 328 327 327 326 325 324 323 322 321 321 320 320 321 321 321 321 321 321 322 322
332 330 329 329 332 331 330 328 327 329 329 328 328 329 331 330 330 327 328 328 328 328 328 329 328 327 326 325 324 323 322 320 319 317 317 318 318 319 320 321 320 320 320
329 327 329 329 329 328 325 328 330 328 327 326 325 326 329 330 330 328 327 327 327 328 328 329 329 328 328 327 325 324 323 320 318 316 315 316 317 318 319 320 319 319 319
328 329 328 329 329 327 327 330 328 327 324 327 324 323 324 328 330 329 329 327 326 326 326 327 328 328 327 328 328 326 325 324 321 319 316 315 316 317 318 319 318 318 318
327 329 328 328 328 328 329 328 328 323 324 324 322 322 317 321 323 326 328 328 327 326 325 325 326 327 327 326 329 328 327 327 325 322 319 317 317 319 320 319 319 318 317
330 331 330 330 328 326 325 328 328 327 321 323 323 319 316 313 322 325 325 326 328 327 326 326 326 326 328 327 327 327 328 328 327 325 323 321 320 320 319 318 318 317 317
331 330 330 330 328 326 326 324 326 326 324 319 321 320 322 323 313 313 321 325 327 326 327 326 325 325 326 326 326 326 329 327 327 325 325 324 322 320 318 318 317 317 317
333 331 331 330 329 326 326 326 325 326 323 320 319 319 319 318 320 314 310 316 322 326 326 327 326 326 326 326 326 325 327 327 327 327 325 324 322 320 318 317 317 317 317
334 333 330 330 330 329 326 325 326 326 325 323 321 319 318 316 316 315 313 315 314 319 322 323 323 323 324 325 324 325 323 324 325 326 326 325 322 320 318 317 316 317 316
333 334 333 331 329 330 328 326 325 324 323 320 320 317 318 318 317 317 316 314 313 316 317 320 323 323 322 323 323 323 323 325 324 323 324 324 322 320 318 317 316 315 315
334 335 333 332 331 330 329 327 324 323 321 319 322 318 318 319 316 317 315 313 311 312 315 318 322 322 323 323 323 320 323 323 323 322 322 321 321 321 319 317 315 314 314
334 333 332 331 331 331 330 329 322 318 318 321 316 321 315 318 320 318 318 316 313 308 310 316 315 322 322 322 322 323 321 323 320 321 321 321 320 319 319 318 316 314 314
333 334 332 330 331 331 331 327 322 319 321 318 316 321 318 318 315 319 319 319 317 313 310 315 316 319 321 318 317 320 316 317 318 317 318 319 318 317 317 317 316 315 314
335 332 329 327 326 326 327 327 327 324 317 316 318 316 315 320 317 316 317 316 317 316 311 315 317 320 318 320 316 319 318 317 318 312 312 313 314 314 314 315 315 314 314
337 335 333 329 328 327 326 322 322 323 321 317 318 316 317 316 315 316 316 318 315 317 314 313 317 315 315 316 312 312 312 311 314 309 310 310 311 311 311 312 311 312 312
337 334 335 333 332 330 326 323 323 324 319 319 319 315 315 318 312 315 314 312 314 314 316 313 310 312 314 307 306 308 309 312 312 307 307 308 308 310 310 310 311 310 310
336 334 332 331 328 329 327 326 324 320 320 320 321 318 318 316 312 314 312 313 311 314 312 310 310 310 308 306 305 303 307 309 308 309 307 307 307 308 308 308 309 310 310
335 335 333 330 328 328 325 326 326 324 321 320 319 319 319 318 318 316 313 311 312 310 309 308 308 308 304 302 301 306 303 305 309 310 309 310 310 310 312 309 310 308 308
334 333 331 331 331 330 316 312 319 327 326 325 323 322 320 320 319 316 315 315 313 310 309 308 310 305 306 306 308 303 303 304 301 310 308 307 313 309 309 310 305 305 307
332 330 330 329 327 328 313 309 311 325 325 324 325 325 323 324 321 320 315 313 313 312 312 312 307 307 306 309 307 302 301 302 302 309 308 305 311 307 309 310 305 305 305
321 323 325 325 325 328 311 306 307 319 322 324 321 322 323 323 323 321 320 317 314 313 313 313 310 310 311 316 314 311 304 305 310 307 310 303 310 306 309 310 305 304 305
321 321 322 321 321 321 310 305 308 321 320 322 324 322 321 321 313 307 315 313 311 310 311 309 308 307 305 305 308 304 302 303 305 306 308 306 308 306 308 310 311 305 303
321 320 320 321 316 318 310 305 307 319 323 322 323 322 311 315 307 303 311 312 308 309 309 309 310 307 307 307 305 312 312 307 306 304 309 305 307 307 303 308 308 310 310
Wind_Speed
1 2 2 3 4 5 5 4 6 6 6 6 6 6 6 6 6 4 5 11 13 12 13 13 13 13 13 13 13 13 14 14 14 13 13 13 13 13 13 13 13 13 13
2 2 3 4 4 4 5 4 3 6 6 5 6 5 5 6 6 5 5 8 10 10 11 12 12 12 12 12 12 12 13 13 12 12 12 12 12 12 12 12 12 13 12
3 2 3 4 4 5 7 5 4 5 5 5 6 5 5 4 4 5 4 5 8 9 9 9 10 10 11 10 10 10 10 10 10 10 10 10 10 10 11 12 12 12 12
3 4 4 4 4 5 5 4 5 6 5 6 5 5 4 4 5 5 3 4 4 5 7 7 7 7 7 8 7 7 7 6 6 6 7 8 8 9 9 10 11 11 11
4 4 3 4 4 4 4 5 5 6 5 5 5 4 4 4 5 4 4 5 5 4 4 9 7 6 6 5 5 4 4 3 1 2 4 5 6 7 8 10 11 13 14
4 3 3 4 4 4 4 5 5 5 6 6 6 6 5 5 5 5 6 6 6 6 6 6 6 7 9 8 7 7 6 5 3 1 1 3 5 6 7 9 10 12 13
3 4 3 4 3 4 4 4 4 6 4 5 5 5 5 7 8 8 7 7 8 8 7 7 6 5 7 11 10 10 9 8 6 5 3 2 3 5 6 8 9 11 12
3 4 4 3 3 4 5 5 4 4 3 6 5 4 5 7 9 10 9 9 10 8 9 10 9 9 8 7 9 11 12 11 10 8 6 4 4 6 9 10 8 10 11
6 6 5 3 3 3 3 4 4 5 5 5 6 5 4 6 2 5 11 10 10 8 9 10 11 12 11 10 10 11 14 14 11 10 8 8 7 8 10 10 10 10 11
6 6 6 5 4 3 3 3 4 4 4 6 4 6 4 3 4 3 4 7 9 11 11 10 10 11 12 10 14 14 9 12 12 11 10 12 8 8 9 9 8 8 10
6 6 6 6 6 5 5 5 5 6 5 5 6 4 6 5 5 6 6 4 5 7 9 8 8 8 11 11 10 11 12 12 13 14 13 13 9 8 9 9 9 9 10
4 6 7 7 7 5 6 5 5 6 6 6 5 6 6 5 7 6 7 6 5 4 5 5 6 7 7 8 10 11 10 12 13 13 12 12 10 9 9 9 9 9 9
5 6 7 8 7 7 6 6 6 6 6 6 6 5 5 6 5 6 6 5 6 4 4 4 4 4 4 6 6 10 10 11 13 13 11 10 9 8 10 10 10 8 8
6 5 5 8 10 9 8 7 6 6 6 5 8 5 5 5 4 6 5 6 5 6 5 5 3 3 3 4 3 0 3 6 8 7 7 9 10 9 9 11 10 7 8
5 6 7 7 9 10 10 9 7 6 5 7 5 8 6 6 6 5 6 6 7 7 6 7 5 5 4 4 1 3 4 3 10 9 10 8 7 6 7 9 9 8 8
7 6 6 7 8 9 9 9 8 6 9 5 5 8 7 6 6 7 6 4 6 7 8 4 6 5 6 4 5 3 2 3 2 2 3 3 2 4 7 8 8 10 11
8 8 8 8 8 8 8 9 10 10 9 7 8 6 8 9 6 5 5 6 8 7 8 4 4 6 5 8 4 3 3 3 2 3 3 4 4 5 7 8 8 9 11
7 7 7 8 9 9 8 9 10 11 13 11 12 9 9 6 8 6 7 8 6 7 8 9 3 5 7 4 2 2 2 1 3 4 2 2 3 5 7 8 8 9 9
8 7 8 9 9 10 9 9 10 11 10 11 12 9 10 12 8 9 9 5 6 5 6 5 4 4 5 2 2 1 2 4 5 2 4 3 2 5 8 9 7 8 9
7 7 7 8 7 8 9 10 10 9 9 9 11 9 11 11 10 10 8 10 7 7 6 5 4 3 2 2 1 2 7 6 3 4 3 4 4 4 8 7 6 6 6
6 6 7 7 8 7 8 8 10 11 10 10 11 11 11 13 17 14 8 11 10 9 8 7 6 5 4 3 4 5 4 2 8 4 5 5 4 4 2 7 6 4 6
5 4 5 6 7 6 8 10 12 10 12 13 12 11 10 15 17 21 22 21 17 14 14 9 8 7 8 5 7 4 4 5 4 4 5 6 1 5 4 4 4 5 6
6 6 6 5 6 7 7 11 11 11 11 11 12 11 10 9 13 11 17 21 20 20 17 11 10 8 4 8 6 5 5 5 5 5 6 6 3 5 3 3 4 3 3
2 4 7 5 6 8 8 12 8 8 10 12 9 10 11 11 11 11 12 11 13 14 14 9 8 7 7 7 10 5 7 7 6 4 5 6 1 5 3 3 5 6 6
6 4 7 9 7 8 10 11 7 6 9 12 11 12 9 10 10 11 10 9 10 9 10 11 10 9 9 9 8 5 5 7 9 9 7 6 2 5 3 1 3 6 5
10 10 9 9 11 9 12 11 5 7 9 5 9 10 11 13 9 10 11 10 10 9 9 10 9 7 10 9 13 12 8 8 7 6 7 6 4 3 4 3 4 4 3
Wind_Direction
163 182 116 133 153 151 132 126 142 142 135 131 120 112 102 98 95 92 97 98 93 94 94 92 90 90 90 90 89 88 86 83 81 77 74 71 65 59 55 51 45 40 36
164 142 162 138 154 142 142 155 151 154 150 152 138 133 125 115 106 111 107 112 105 102 98 97 96 95 95 94 93 90 86 81 76 73 69 63 57 51 49 47 41 39 34
160 182 198 168 146 146 145 140 146 171 162 164 155 154 149 138 136 132 130 122 135 130 124 118 116 114 113 111 107 100 91 83 74 66 60 58 54 46 38 32 27 23 23
186 204 193 169 147 157 157 159 173 185 181 177 170 176 177 177 166 161 159 153 151 140 152 145 135 126 124 122 122 119 114 101 87 72 58 46 38 32 23 19 14 9 4
195 195 186 150 169 164 163 174 177 194 194 192 189 193 192 195 194 189 192 192 187 188 183 174 180 176 169 168 166 166 168 165 155 39 41 48 49 41 27 14 12 8 0
171 187 171 168 192 180 187 192 184 188 218 207 204 194 202 206 205 211 213 216 206 211 214 221 196 197 207 208 210 208 209 209 216 204 49 28 22 19 8 5 1 358 355
174 203 189 185 173 196 212 200 170 180 172 198 205 208 214 222 222 221 216 220 215 217 219 222 229 231 203 221 229 229 230 227 228 222 230 307 347 339 338 342 346 346 348
208 211 219 202 178 188 176 186 191 188 182 188 216 235 227 208 223 225 223 223 224 220 222 224 231 232 242 240 235 229 238 245 236 228 233 255 291 308 308 321 332 339 337
203 204 203 221 205 243 204 198 207 228 227 189 229 264 209 240 196 204 223 229 226 226 234 231 231 231 230 240 243 235 241 247 256 260 248 236 257 287 316 328 328 332 327
208 207 210 199 204 224 223 215 220 241 240 237 210 228 258 307 259 230 207 223 232 233 232 234 233 237 238 236 238 249 249 246 252 262 250 252 257 283 310 318 320 325 323
227 231 226 215 207 212 204 219 207 214 217 259 235 201 226 226 230 255 263 193 220 229 229 230 243 244 235 239 238 242 232 240 248 249 255 250 250 264 290 307 312 313 317
230 233 232 228 233 229 218 213 210 213 225 235 238 236 239 232 220 223 239 238 255 194 218 222 238 243 239 229 233 238 221 238 251 251 252 246 245 256 277 291 301 305 309
233 240 232 230 227 229 232 233 220 224 219 223 226 224 238 249 252 243 249 246 246 203 209 223 245 240 230 224 224 211 207 231 241 246 233 228 237 247 264 279 292 293 297
214 222 235 232 231 232 230 225 230 233 221 224 225 238 247 239 223 242 246 237 231 228 210 257 201 196 176 195 84 205 233 275 275 286 251 231 238 230 251 269 278 274 279
229 211 213 227 230 233 234 226 229 218 221 227 222 225 213 225 232 222 237 242 249 251 238 187 218 178 179 207 135 265 278 315 308 313 293 251 234 244 254 263 272 270 268
219 226 237 231 229 232 230 222 228 222 228 218 233 227 230 231 221 231 235 243 244 254 264 223 216 183 196 204 176 197 201 260 8 318 315 355 330 302 284 263 268 275 274
227 220 215 226 231 236 231 229 230 229 220 224 221 219 228 228 229 228 225 224 237 236 249 223 223 181 217 227 200 244 238 222 172 84 57 22 342 301 282 273 273 285 291
241 238 235 232 237 230 230 220 232 231 227 220 228 221 229 216 217 217 230 227 227 217 249 247 187 211 219 198 126 173 209 263 271 115 17 312 288 296 294 289 296 290 291
236 228 237 238 244 242 231 224 232 241 225 227 232 223 223 220 212 224 228 226 225 215 214 233 224 221 205 156 169 192 208 239 241 211 212 246 284 286 287 286 287 285 281
250 253 253 250 257 264 251 246 241 235 240 238 238 226 238 220 221 219 206 214 216 224 225 204 224 196 194 131 141 220 235 225 269 251 221 277 279 265 275 289 287 296 307
262 261 259 251 258 251 251 253 249 242 234 230 227 224 226 230 229 224 206 214 210 211 205 218 205 202 181 171 189 209 220 209 229 248 266 250 276 292 281 211 255 247 307
282 262 259 262 271 259 249 235 247 253 247 246 242 235 237 235 232 229 219 221 206 206 210 201 209 208 211 201 207 184 210 228 254 177 243 286 254 294 303 278 34 308 316
349 333 325 311 305 302 267 252 241 252 255 249 247 250 250 244 240 237 224 220 217 214 210 200 197 199 190 200 164 172 183 192 214 204 233 277 302 288 294 253 187 264 339
13 338 318 309 307 300 282 256 249 250 257 251 236 235 248 254 248 242 237 219 214 204 204 185 188 184 211 195 202 201 176 214 244 243 228 266 291 287 304 297 168 232 276
306 308 306 305 320 311 299 274 243 255 253 257 247 251 236 247 257 237 237 217 206 203 182 179 188 205 206 166 158 137 194 195 221 214 187 253 245 280 293 202 138 202 251
297 299 302 297 297 287 286 282 254 271 241 250 297 264 250 242 247 225 228 210 191 199 177 182 202 216 218 194 176 207 221 223 235 230 167 235 200 266 261 159 242 302 251